User: anonymous   Login
Location: Oshawa
(43.9000°N, 78.8670°W)
Time: 22:05:49
(UTC-04:00)
Language:

Envisat - Orbit

View from above orbital plane
View from above orbital plane
View from above satellite
View from above satellite

Ground track
Ground track

The orbit data is extracted from the following two-line orbital elements,

1 27386U 02009A   16148.52590520  .00000020  00000-0  20507-4 0  9995
2 27386  98.2854 202.6840 0001320  80.5033 279.6307 14.37867134745656
Epoch (UTC): 27 May 2016 12:37:18
Eccentricity: 0.0001320
inclination: 98.2854°
perigee height: 764 km
apogee height: 766 km
right ascension of ascending node: 202.6840°
argument of perigee: 80.5033°
revolutions per day: 14.37867134
mean anomaly at epoch: 279.6307°
orbit number at epoch: 74565

The dashed part of the orbit path shows where the satellite is in the earth's shadow,  

DLR